[[{"header":{"parameterUnit":"m.s-1","parameterCategory":1,"la1":30.2991,"la2":30.254,"lo1":-89.0895,"lo2":-89.0444,"dy":0.0017,"dx":0.0017,"nx":28,"ny":28,"refTime":"2025-05-15T03:00:00:Z","depth":0,"parameterNumber":2,"parameterNumberName":"U-component_of_WINDS"},"data":[0,0,0,0,0,0,0,0,0,0,0,0,0,0,0,0,0,0,0,0,0,0,0,0,0,0,0,0,0,0,0,0,0,0,0,0,0,0,0,0,0,0,0,0,0,0,0,0,0,0,0,0,0,0,0,0,0,0,-0.7811,-0.7811,0,-0.7795,-0.7795,-0.7795,-0.7822,-0.7823,-0.7824,-0.7825,-0.7803,-0.7802,-0.78,0,0,0,0,0,0,0,0,0,0,0,0,0,-0.7862,-0.7861,-0.7811,-0.7811,-0.7811,-0.7795,-0.7795,-0.7795,-0.7822,-0.7823,-0.7824,-0.7825,-0.7804,-0.7802,-0.78,0,0,0,0,0,0,0,0,0,0,0,0,0,-0.7842,-0.7861,-0.7811,-0.7823,-0.7824,-0.7795,-0.7795,-0.7795,-0.7822,-0.7823,-0.7825,-0.7826,-0.7804,-0.7802,-0.78,-0.7758,0,0,-0.7793,-0.7792,0,0,0,0,0,0,0,0,-0.7843,-0.784,-0.7821,-0.7822,-0.7823,-0.7812,-0.7805,-0.7782,-0.7821,-0.7822,-0.7825,-0.7827,-0.7805,-0.7802,-0.7796,-0.7757,-0.7756,-0.7793,-0.7792,-0.7791,-0.779,0,0,0,0,0,0,0,-0.7845,-0.7841,-0.7805,-0.7821,-0.7822,-0.7828,-0.7826,-0.7801,-0.7806,-0.7822,-0.7824,-0.7822,-0.7805,-0.7798,-0.7796,-0.7756,-0.7793,-0.7791,-0.779,-0.7789,-0.7682,-0.768,0,0,0,0,0,0,-0.7845,-0.7842,-0.7805,-0.7804,-0.7837,-0.7825,-0.7824,-0.7814,-0.7806,-0.7806,-0.7821,-0.7824,-0.7801,-0.7798,-0.7795,-0.7746,-0.7791,-0.7789,-0.7787,-0.7683,-0.7681,-0.768,0,0,0,0,0,0,-0.7846,-0.7842,-0.7806,-0.7824,-0.782,-0.7823,-0.7812,-0.7813,-0.7806,-0.7805,-0.7806,-0.7813,-0.7802,-0.7798,-0.7768,-0.7745,-0.7788,-0.7786,-0.7685,-0.7683,-0.7681,-0.7646,0,0,0,0,0,0,-0.7847,-0.7842,-0.7827,-0.7823,-0.7819,-0.778,-0.781,-0.7812,-0.7803,-0.7806,-0.7798,-0.7798,-0.7803,-0.7771,-0.7765,-0.7743,-0.7784,-0.7687,-0.7684,-0.7681,-0.7649,-0.7643,-0.7637,0,0,0,0,0,-0.7849,-0.7816,-0.7826,-0.7821,-0.78,-0.7778,-0.7776,-0.7784,-0.7801,-0.7785,-0.7785,-0.7798,-0.7749,-0.7767,-0.7762,-0.7738,-0.7688,-0.7685,-0.7682,-0.7652,-0.7644,-0.7638,0,0,0,0,0,0,-0.7814,-0.7816,-0.7826,-0.7792,-0.7785,-0.7783,-0.7763,-0.7775,-0.7762,-0.7765,-0.7775,-0.7773,-0.7739,-0.7736,-0.7756,-0.7698,-0.7721,-0.7717,-0.7701,-0.7693,-0.7688,-0.7688,-0.7782,0,0,0,0,0,-0.7803,-0.7787,-0.7789,-0.7758,-0.7754,-0.7759,-0.775,-0.7758,-0.775,-0.7747,-0.7744,-0.7735,-0.7718,-0.7706,-0.7689,-0.765,-0.7648,-0.7631,-0.7625,-0.762,-0.7615,-0.7594,-0.7586,-0.7669,-0.7669,-0.7669,0,0,-0.7779,-0.7778,-0.7766,-0.7751,-0.7746,-0.7728,-0.7756,-0.7736,-0.7722,-0.7743,-0.7714,-0.7712,-0.7702,-0.7667,-0.7651,-0.7663,-0.7593,-0.7616,-0.7612,-0.761,-0.7589,-0.7582,-0.7575,-0.7666,-0.7667,-0.7667,0,0,-0.7725,-0.7723,-0.7697,-0.7693,-0.7687,-0.7691,-0.7685,-0.7682,-0.7682,-0.7654,-0.7669,-0.7652,-0.7622,-0.7615,-0.7607,-0.7553,-0.7564,-0.7548,-0.7516,-0.7495,-0.7489,-0.7483,-0.7462,-0.7455,-0.7543,-0.7543,-0.7543,0,-0.7695,-0.7669,-0.7682,-0.7661,-0.7653,-0.7674,-0.7648,-0.7642,-0.763,-0.7624,-0.7638,-0.7602,-0.7597,-0.756,-0.7547,-0.7541,-0.7533,-0.7547,-0.7489,-0.7483,-0.7478,-0.7459,-0.7451,-0.7541,-0.7541,-0.7541,-0.7542,0,-0.7632,-0.7614,-0.7594,-0.7584,-0.7575,-0.755,-0.7559,-0.7547,-0.7556,-0.7558,-0.7529,-0.7525,-0.7508,-0.7501,-0.7508,-0.7465,-0.7473,-0.7488,-0.7511,-0.7468,-0.745,-0.7443,-0.7538,-0.7539,-0.7539,-0.754,0,0,-0.7553,-0.7553,-0.7545,-0.7541,-0.7537,-0.7523,-0.75,-0.7486,-0.7476,-0.7467,-0.7447,-0.7423,-0.7437,-0.7429,-0.7436,-0.7418,-0.7374,-0.7435,-0.7435,-0.7423,-0.7326,-0.7313,-0.7304,-0.7383,-0.7382,-0.7381,-0.7326,0,-0.7499,-0.7461,-0.7473,-0.7434,-0.7417,-0.7438,-0.7418,-0.7413,-0.7415,-0.74,-0.7402,-0.7384,-0.7405,-0.74,-0.7383,-0.7383,-0.7355,-0.7388,-0.7363,-0.7362,-0.7363,-0.7295,-0.7282,-0.723,-0.7319,-0.7318,-0.7317,0,-0.743,-0.7421,-0.7381,-0.7381,-0.7374,-0.7356,-0.7345,-0.7331,-0.7325,-0.7328,-0.732,-0.7331,-0.7308,-0.7334,-0.7301,-0.7323,-0.7314,-0.7312,-0.7311,-0.7307,-0.7335,-0.7288,-0.7214,-0.7206,-0.7306,-0.7307,-0.7308,0,-0.7375,-0.7353,-0.7327,-0.7323,-0.7322,-0.7309,-0.7307,-0.7304,-0.7295,-0.7285,-0.7279,-0.7266,-0.7258,-0.7247,-0.7254,-0.7272,-0.7219,-0.7246,-0.722,-0.7219,-0.7205,-0.7206,-0.7127,-0.7202,-0.7203,-0.7203,-0.7203,0,-0.7312,-0.7286,-0.7302,-0.7285,-0.7257,-0.7271,-0.7242,-0.7244,-0.724,-0.7223,-0.7241,-0.7224,-0.7236,-0.722,-0.7225,-0.7197,-0.7193,-0.7194,-0.7195,-0.7191,-0.7191,-0.7184,-0.7187,-0.7201,-0.7201,-0.7202,-0.7202,0,-0.7245,-0.7255,-0.7227,-0.723,-0.723,-0.7209,-0.721,-0.7194,-0.7199,-0.7177,-0.7173,-0.7179,-0.7162,-0.7169,-0.715,-0.7153,-0.7117,-0.7123,-0.7119,-0.712,-0.7093,-0.7095,-0.7005,-0.6994,-0.7078,-0.7077,-0.7076,0,-0.7203,-0.7184,-0.7186,-0.7177,-0.7175,-0.716,-0.7152,-0.7165,-0.7156,-0.7149,-0.7134,-0.7118,-0.7106,-0.7077,-0.7079,-0.7065,-0.707,-0.704,-0.7068,-0.7065,-0.7068,-0.7069,-0.7066,-0.7034,-0.7033,-0.7032,-0.7031,0,-0.7127,-0.7134,-0.7122,-0.7113,-0.7103,-0.7096,-0.709,-0.7081,-0.7094,-0.7083,-0.7066,-0.7057,-0.7039,-0.7023,-0.7011,-0.7008,-0.7021,-0.7023,-0.7016,-0.701,-0.7008,-0.7008,-0.7102,-0.7024,-0.7025,-0.7025,-0.7026,-0.7026,-0.7071,-0.7055,-0.7054,-0.7041,-0.7038,-0.7033,-0.7018,-0.7022,-0.7009,-0.6997,-0.7006,-0.6986,-0.6982,-0.6967,-0.6963,-0.6947,-0.6958,-0.6948,-0.6945,-0.6942,-0.6938,-0.7013,-0.6944,-0.6945,-0.6945,-0.6945,-0.6945,0,-0.6995,-0.6996,-0.6984,-0.6976,-0.6966,-0.6983,-0.6977,-0.6967,-0.695,-0.6946,-0.6935,-0.6916,-0.6901,-0.6903,-0.6889,-0.6876,-0.6881,-0.6871,-0.6871,-0.687,-0.6929,-0.6936,-0.6867,-0.6867,-0.6867,-0.6867,-0.6867,-0.6867,-0.6954,-0.6929,-0.6935,-0.6909,-0.691,-0.6892,-0.6888,-0.6882,-0.6879,-0.6858,-0.6847,-0.6849,-0.6847,-0.6834,-0.682,-0.6821,-0.6814,-0.6802,-0.6805,-0.6859,-0.6866,-0.6874,-0.688,-0.6801,-0.6801,-0.6748,-0.6747,-0.6747]},{"header":{"parameterUnit":"m.s-1","parameterCategory":1,"la1":30.2991,"la2":30.254,"lo1":-89.0895,"lo2":-89.0444,"dy":0.0017,"dx":0.0017,"nx":28,"ny":28,"refTime":"2025-05-15T03:00:00:Z","depth":0,"parameterNumber":3,"parameterNumberName":"V-component_of_WINDS"},"data":[0,0,0,0,0,0,0,0,0,0,0,0,0,0,0,0,0,0,0,0,0,0,0,0,0,0,0,0,0,0,0,0,0,0,0,0,0,0,0,0,0,0,0,0,0,0,0,0,0,0,0,0,0,0,0,0,0,0,5.3115,5.3116,0,5.3181,5.3182,5.3183,5.3143,5.3141,5.3139,5.3137,5.3202,5.3206,5.3209,0,0,0,0,0,0,0,0,0,0,0,0,0,5.2952,5.2955,5.3115,5.3116,5.3117,5.3181,5.3182,5.3183,5.3143,5.3141,5.3139,5.3137,5.3201,5.3205,5.3209,0,0,0,0,0,0,0,0,0,0,0,0,0,5.3021,5.2956,5.3115,5.3105,5.3104,5.3181,5.3182,5.3183,5.3144,5.3141,5.3138,5.3135,5.32,5.3205,5.321,5.3299,0,0,5.3226,5.3228,0,0,0,0,0,0,0,0,5.3017,5.3027,5.3105,5.3106,5.3105,5.3151,5.3148,5.3222,5.3145,5.3129,5.3137,5.3134,5.3187,5.3193,5.3212,5.3302,5.3305,5.3226,5.323,5.3232,5.3233,0,0,0,0,0,0,0,5.3012,5.3024,5.3141,5.3107,5.3107,5.3096,5.3103,5.3162,5.3173,5.313,5.3127,5.3136,5.3187,5.3207,5.3213,5.3306,5.3226,5.3231,5.3234,5.3236,5.3475,5.3478,0,0,0,0,0,0,5.3009,5.302,5.3139,5.3143,5.3053,5.3101,5.3109,5.3139,5.3172,5.3175,5.3138,5.3134,5.3199,5.3207,5.3215,5.3323,5.3232,5.3237,5.324,5.3472,5.3476,5.3479,0,0,0,0,0,0,5.3005,5.302,5.3136,5.3081,5.3095,5.3107,5.3142,5.3142,5.3162,5.3179,5.318,5.3157,5.3197,5.3208,5.3279,5.3325,5.3239,5.3244,5.3468,5.3473,5.3478,5.354,0,0,0,0,0,0,5.3001,5.3019,5.3053,5.3082,5.3098,5.32,5.3144,5.3145,5.3172,5.3167,5.3197,5.3199,5.3196,5.3272,5.3285,5.3331,5.3248,5.3464,5.347,5.3476,5.3534,5.3546,5.3557,0,0,0,0,0,5.2995,5.3067,5.3055,5.3069,5.3142,5.3203,5.3212,5.3208,5.3176,5.321,5.3221,5.3198,5.3318,5.3279,5.3293,5.3342,5.3461,5.3469,5.3476,5.3529,5.3544,5.3557,0,0,0,0,0,0,5.3041,5.307,5.3057,5.3141,5.317,5.3196,5.3239,5.3224,5.3261,5.3255,5.3248,5.3255,5.333,5.3343,5.3299,5.3431,5.3385,5.3395,5.342,5.3435,5.3446,5.3441,5.3252,0,0,0,0,0,5.3061,5.3109,5.3132,5.3203,5.3218,5.3227,5.3253,5.3248,5.3277,5.3289,5.3304,5.3333,5.3377,5.3407,5.3448,5.3536,5.3542,5.3576,5.3588,5.3597,5.3606,5.3655,5.3671,5.3503,5.3503,5.3503,0,0,5.3102,5.3124,5.3154,5.3213,5.3234,5.3284,5.3237,5.3291,5.3328,5.3296,5.3366,5.3379,5.341,5.3491,5.3527,5.3504,5.3654,5.3606,5.3614,5.3617,5.3664,5.368,5.3694,5.3508,5.3507,5.3506,0,0,5.3203,5.3224,5.3287,5.331,5.3345,5.335,5.3366,5.3395,5.3403,5.3472,5.3451,5.3494,5.357,5.3594,5.3616,5.3729,5.371,5.3743,5.3803,5.3851,5.3864,5.3876,5.3917,5.3932,5.3752,5.3752,5.3752,0,5.3249,5.3324,5.332,5.3377,5.3404,5.338,5.3444,5.3466,5.3512,5.3531,5.3505,5.3602,5.3621,5.3707,5.3735,5.3754,5.3771,5.3739,5.3863,5.3874,5.3885,5.3925,5.394,5.3756,5.3755,5.3755,5.3755,0,5.338,5.3433,5.3479,5.3526,5.3558,5.3618,5.3623,5.3656,5.3648,5.3657,5.3729,5.3752,5.3798,5.3818,5.3811,5.3905,5.389,5.3863,5.3816,5.3905,5.3942,5.3957,5.3761,5.376,5.3759,5.3758,0,0,5.351,5.3557,5.3574,5.3596,5.3633,5.3673,5.3733,5.378,5.3809,5.3841,5.3891,5.3957,5.3934,5.3959,5.3955,5.3997,5.4087,5.3965,5.3966,5.3988,5.4193,5.4213,5.4231,5.4074,5.4077,5.4079,5.4191,0,5.3614,5.3719,5.3718,5.3815,5.3864,5.3843,5.3895,5.3923,5.3933,5.3976,5.3986,5.4034,5.3999,5.4014,5.4055,5.4067,5.4128,5.4059,5.412,5.4123,5.4114,5.425,5.427,5.4374,5.4205,5.4207,5.4209,0,5.3749,5.3789,5.3891,5.3924,5.3944,5.3991,5.4035,5.4076,5.4108,5.4113,5.4143,5.4132,5.4192,5.4144,5.4227,5.4181,5.4206,5.4216,5.422,5.4226,5.4171,5.426,5.4407,5.4423,5.4232,5.423,5.4228,0,5.3835,5.3914,5.3986,5.4005,5.4044,5.4078,5.4096,5.4125,5.4155,5.4193,5.4212,5.4257,5.4281,5.4316,5.4318,5.4283,5.4403,5.4354,5.4409,5.4409,5.4435,5.4433,5.4589,5.445,5.445,5.445,5.4449,0,5.3951,5.4015,5.4025,5.4069,5.414,5.4139,5.4209,5.4224,5.4251,5.4298,5.4282,5.4326,5.4325,5.437,5.4372,5.4442,5.4453,5.4458,5.4458,5.446,5.4459,5.4476,5.4469,5.4454,5.4453,5.4452,5.4451,0,5.4059,5.4069,5.4146,5.4178,5.4187,5.4238,5.4265,5.4308,5.4317,5.4376,5.439,5.4404,5.4456,5.4462,5.4522,5.4524,5.4608,5.46,5.4598,5.4597,5.4651,5.4646,5.4824,5.4847,5.4693,5.4694,5.4695,0,5.4133,5.4182,5.422,5.4251,5.4271,5.4321,5.4351,5.4352,5.4385,5.4427,5.4464,5.4515,5.4556,5.4641,5.4656,5.4703,5.4696,5.4755,5.4703,5.4704,5.4698,5.4695,5.4701,5.4765,5.4767,5.4768,5.4769,0,5.4263,5.4266,5.4311,5.4359,5.4397,5.4434,5.4469,5.4495,5.45,5.4538,5.4592,5.4624,5.4687,5.4738,5.4785,5.4802,5.4788,5.4786,5.4801,5.4804,5.4801,5.4804,5.4626,5.4782,5.478,5.478,5.4779,5.4778,5.4357,5.44,5.4435,5.4486,5.4513,5.4547,5.4589,5.4604,5.465,5.4702,5.47,5.476,5.4793,5.4854,5.4875,5.4922,5.4903,5.4924,5.493,5.4935,5.4942,5.4794,5.4931,5.493,5.493,5.493,5.4929,0,5.4487,5.4509,5.4557,5.4607,5.4648,5.4632,5.467,5.4705,5.4759,5.4791,5.4833,5.4896,5.4947,5.4967,5.5016,5.505,5.5045,5.5063,5.5061,5.5065,5.4956,5.4938,5.5067,5.5067,5.5067,5.5067,5.5067,5.5067,5.456,5.4633,5.464,5.4727,5.4748,5.4808,5.4831,5.4863,5.4889,5.4961,5.5003,5.5017,5.5045,5.5096,5.5142,5.5147,5.5166,5.5188,5.519,5.5087,5.5073,5.506,5.5043,5.5192,5.5192,5.5295,5.5296,5.5297]}]]